Вернуться в каталог

STARLINK-30498

АктивенСвязьVLEO
NORAD 57971·PAYLOAD·🇺🇸 United States

Запущен Sep 30, 2023 с Cape Canaveral Space Force Station

Loading…

Ближайшие Пролёты (ближайшие 24 часа)

TLE

СвежийSource: CelesTrak SupGP

Эпоха: Sep 15, 2026, 02:05 UTC

1 57971C 23151H   26258.08729167  .00018153  00000+0  65768-3 0  2584
2 57971  43.0032 346.3425 0001447 262.1860  63.9308 15.27559816    10

Отслеживайте STARLINK-30498 в реальном времени с AllMySat

Download on the App Store